Location: Unspecified
(29.0040°N, 0.0000°E)
Time: 14:44:31
(UTC+00:00)

N. Korean satellite - Visible Passes

Search period start: 13 November 2019 00:00
Search period end: 23 November 2019 00:00
Orbit: 456 x 506 km, 97.2° (Epoch: 12 November)

Date Brightness Start Highest point End Pass type
(mag) Time Alt. Az. Time Alt. Az. Time Alt. Az.
13 Nov 7.0 05:38:56 10° NNE 05:42:38 68° ESE 05:46:16 10° S visible
13 Nov 8.6 17:41:23 10° SSW 17:44:36 34° W 17:47:54 10° NNW visible
14 Nov 9.0 05:14:01 10° NE 05:17:14 27° E 05:20:23 10° SSE visible
15 Nov 10.2 04:50:09 10° ENE 04:51:44 12° E 04:53:19 10° ESE visible
16 Nov 6.6 05:56:11 10° N 05:59:50 63° WNW 06:03:26 10° SSW visible
16 Nov 9.7 17:59:16 10° SW 18:01:53 19° W 18:04:33 10° NW visible
17 Nov 7.6 05:30:54 10° NNE 05:34:29 50° E 05:38:01 10° S visible
17 Nov 7.9 17:33:01 10° S 17:36:26 45° W 17:39:57 10° NNW visible
18 Nov 9.4 05:06:11 10° NE 05:09:03 21° E 05:11:52 10° SSE visible
19 Nov 10.3 18:18:08 10° WSW 18:19:12 11° W 18:20:15 10° WNW visible
20 Nov 6.5 05:48:00 10° N 05:51:41 85° WNW 05:55:18 10° SSW visible
20 Nov 9.2 17:50:40 10° SSW 17:53:40 25° W 17:56:44 10° NW visible
21 Nov 8.3 05:22:52 10° NNE 05:26:18 37° E 05:29:40 10° SSE visible
21 Nov 7.3 17:24:41 10° S 17:28:14 61° W 17:31:53 10° NNW visible
22 Nov 9.8 04:58:27 10° NE 05:00:49 16° E 05:03:10 10° SE visible
